Time,TemperatureF,DewpointF,PressureIn,WindDirection,WindDirectionDegrees,WindSpeedMPH,WindSpeedGustMPH,Humidity,HourlyPrecipIn,Conditions,Clouds,dailyrainin,SolarRadiationWatts/m^2,SoftwareType,DateUTC
2014-01-05 00:01:00,8.2,1.3,30.24,NW,309,3.9,7.0,73,0.00,RA,,0.00,0.0,WeatherDisplay:10.37,2014-01-05 06:01:00,
2014-01-05 00:06:00,8.1,1.2,30.23,West,277,6.4,11.5,73,0.00,OVC,,0.00,0.0,WeatherDisplay:10.37,2014-01-05 06:06:00,
2014-01-05 00:12:00,8.0,1.1,30.23,NW,311,4.5,10.0,73,0.00,BKN,,0.00,0.0,WeatherDisplay:10.37,2014-01-05 06:12:00,
2014-01-05 00:17:00,8.0,1.1,30.23,WNW,303,7.0,15.0,73,0.00,BKN,BKN,0.00,0.0,WeatherDisplay:10.37,2014-01-05 06:17:00,
2014-01-05 00:22:00,8.0,1.1,30.23,WNW,300,6.0,15.0,73,0.00,BKN,BKN,0.00,0.0,WeatherDisplay:10.37,2014-01-05 06:22:00,
2014-01-05 00:27:00,8.0,1.1,30.24,West,279,1.6,8.1,73,0.00,BKN,,0.00,0.0,WeatherDisplay:10.37,2014-01-05 06:27:00,
2014-01-05 00:32:00,8.0,1.1,30.24,NW,314,2.0,13.0,73,0.00,BKN,BKN,0.00,0.0,WeatherDisplay:10.37,2014-01-05 06:32:00,
2014-01-05 00:37:00,8.0,1.1,30.24,NW,309,3.0,10.0,73,0.00,BKN,BKN,0.00,0.0,WeatherDisplay:10.37,2014-01-05 06:37:00,
2014-01-05 00:42:00,8.0,1.1,30.24,WNW,298,5.0,14.0,73,0.00,BKN,BKN,0.00,0.0,WeatherDisplay:10.37,2014-01-05 06:42:00,
2014-01-05 00:47:00,8.0,1.1,30.23,NW,306,3.0,13.0,73,0.00,BKN,BKN,0.00,0.0,WeatherDisplay:10.37,2014-01-05 06:47:00,
2014-01-05 00:52:00,7.9,1.0,30.23,WNW,302,3.0,16.0,73,0.00,BKN,BKN,0.00,0.0,WeatherDisplay:10.37,2014-01-05 06:52:00,
2014-01-05 00:57:00,7.8,0.9,30.23,WNW,290,5.0,13.0,73,0.00,BKN,BKN,0.00,0.0,WeatherDisplay:10.37,2014-01-05 06:57:00,
2014-01-05 01:02:00,7.8,1.2,30.24,NNW,338,4.3,9.2,74,0.00,BKN,,0.00,0.0,WeatherDisplay:10.37,2014-01-05 07:02:00,
2014-01-05 01:07:00,7.7,0.8,30.24,WNW,292,5.0,13.0,73,0.00,BKN,BKN,0.00,0.0,WeatherDisplay:10.37,2014-01-05 07:07:00,
2014-01-05 01:12:00,7.6,0.7,30.24,WNW,286,3.3,11.0,73,0.00,BKN,,0.00,0.0,WeatherDisplay:10.37,2014-01-05 07:12:00,
2014-01-05 01:17:00,7.5,0.4,30.25,West,281,6.5,13.8,72,0.00,BKN,,0.00,0.0,WeatherDisplay:10.37,2014-01-05 07:17:00,
2014-01-05 01:22:00,7.5,0.7,30.24,WNW,283,3.2,8.1,73,0.00,BKN,,0.00,0.0,WeatherDisplay:10.37,2014-01-05 07:22:00,
2014-01-05 01:28:00,7.5,0.4,30.24,NW,305,5.4,11.5,72,0.00,BKN,,0.00,0.0,WeatherDisplay:10.37,2014-01-05 07:28:00,
2014-01-05 01:33:00,7.4,0.3,30.23,WNW,287,3.9,9.2,72,0.00,BKN,,0.00,0.0,WeatherDisplay:10.37,2014-01-05 07:33:00,
2014-01-05 01:38:00,7.3,0.2,30.24,NNW,333,8.0,11.5,72,0.00,BKN,,0.00,0.0,WeatherDisplay:10.37,2014-01-05 07:38:00,
2014-01-05 01:43:00,7.2,0.1,30.23,NNW,329,4.9,9.0,72,0.00,BKN,,0.00,0.0,WeatherDisplay:10.37,2014-01-05 07:43:00,
2014-01-05 01:49:00,7.2,0.1,30.23,NNW,340,7.5,13.8,72,0.00,BKN,,0.00,0.0,WeatherDisplay:10.37,2014-01-05 07:49:00,
2014-01-05 01:54:00,7.1,-0.3,30.24,NNW,331,9.2,13.8,71,0.00,BKN,,0.00,0.0,WeatherDisplay:10.37,2014-01-05 07:54:00,
2014-01-05 01:59:00,7.0,-0.1,30.25,WNW,288,9.3,16.0,72,0.00,BKN,,0.00,0.0,WeatherDisplay:10.37,2014-01-05 07:59:00,
2014-01-05 02:04:00,6.9,-0.5,30.25,NW,323,6.8,15.0,71,0.00,OVC,,0.00,0.0,WeatherDisplay:10.37,2014-01-05 08:04:00,
2014-01-05 02:10:00,6.9,-0.5,30.25,North,355,6.7,8.0,71,0.00,OVC,,0.00,0.0,WeatherDisplay:10.37,2014-01-05 08:10:00,
2014-01-05 02:15:00,6.9,-0.2,30.24,North,11,2.3,3.5,72,0.00,OVC,,0.00,0.0,WeatherDisplay:10.37,2014-01-05 08:15:00,
2014-01-05 02:20:00,6.9,-0.2,30.24,West,274,7.5,11.5,72,0.00,OVC,,0.00,0.0,WeatherDisplay:10.37,2014-01-05 08:20:00,
2014-01-05 02:25:00,6.8,-0.3,30.24,West,263,2.0,8.1,72,0.00,OVC,,0.00,0.0,WeatherDisplay:10.37,2014-01-05 08:25:00,
2014-01-05 02:31:00,6.7,-0.1,30.25,WNW,286,6.0,10.0,73,0.00,OVC,,0.00,0.0,WeatherDisplay:10.37,2014-01-05 08:31:00,
2014-01-05 02:36:00,6.6,-0.2,30.25,WNW,296,6.9,12.7,73,0.00,OVC,,0.00,0.0,WeatherDisplay:10.37,2014-01-05 08:36:00,
2014-01-05 02:41:00,6.5,-0.3,30.25,West,272,6.2,12.7,73,0.00,OVC,,0.00,0.0,WeatherDisplay:10.37,2014-01-05 08:41:00,
2014-01-05 02:46:00,6.4,-0.7,30.25,North,355,3.0,9.0,72,0.00,OVC,,0.00,0.0,WeatherDisplay:10.37,2014-01-05 08:46:00,
2014-01-05 02:52:00,6.4,-0.7,30.25,West,281,5.5,8.1,72,0.00,OVC,,0.00,0.0,WeatherDisplay:10.37,2014-01-05 08:52:00,
2014-01-05 02:57:00,6.4,-0.7,30.25,WNW,303,1.0,7.0,72,0.00,OVC,OVC,0.00,0.0,WeatherDisplay:10.37,2014-01-05 08:57:00,
2014-01-05 03:02:00,6.4,-0.4,30.25,NW,304,3.0,12.0,73,0.00,OVC,OVC,0.00,0.0,WeatherDisplay:10.37,2014-01-05 09:02:00,
2014-01-05 03:07:00,6.4,-0.4,30.25,WNW,294,1.0,10.0,73,0.00,OVC,OVC,0.00,0.0,WeatherDisplay:10.37,2014-01-05 09:07:00,
2014-01-05 03:12:00,6.3,-0.5,30.25,WNW,300,3.0,12.0,73,0.00,OVC,OVC,0.00,0.0,WeatherDisplay:10.37,2014-01-05 09:12:00,
2014-01-05 03:17:00,6.2,-0.6,30.25,NW,306,3.0,12.0,73,0.00,OVC,OVC,0.00,0.0,WeatherDisplay:10.37,2014-01-05 09:17:00,
2014-01-05 03:22:00,6.1,-1.0,30.26,WNW,295,6.0,15.0,72,0.00,OVC,OVC,0.00,0.0,WeatherDisplay:10.37,2014-01-05 09:22:00,
2014-01-05 03:27:00,6.0,-1.1,30.25,WNW,290,5.0,10.0,72,0.00,OVC,OVC,0.00,0.0,WeatherDisplay:10.37,2014-01-05 09:27:00,
2014-01-05 03:32:00,6.0,-1.1,30.25,WNW,294,5.0,14.0,72,0.00,OVC,OVC,0.00,0.0,WeatherDisplay:10.37,2014-01-05 09:32:00,
2014-01-05 03:37:00,6.0,-1.4,30.25,WNW,291,5.0,13.0,71,0.00,OVC,OVC,0.00,0.0,WeatherDisplay:10.37,2014-01-05 09:37:00,
2014-01-05 03:42:00,5.9,-1.4,30.25,NW,307,3.0,13.0,71,0.00,OVC,OVC,0.00,0.0,WeatherDisplay:10.37,2014-01-05 09:42:00,
2014-01-05 03:47:00,5.9,-1.5,30.25,WNW,303,9.0,18.0,71,0.00,OVC,OVC,0.00,0.0,WeatherDisplay:10.37,2014-01-05 09:47:00,
2014-01-05 03:52:00,5.9,-1.8,30.25,WNW,294,5.0,13.0,70,0.00,OVC,OVC,0.00,0.0,WeatherDisplay:10.37,2014-01-05 09:52:00,
2014-01-05 03:57:00,5.8,-1.9,30.25,NW,304,3.0,14.0,70,0.00,OVC,OVC,0.00,0.0,WeatherDisplay:10.37,2014-01-05 09:57:00,
2014-01-05 04:02:00,5.8,-1.6,30.26,NW,304,6.0,12.0,71,0.00,OVC,OVC,0.00,0.0,WeatherDisplay:10.37,2014-01-05 10:02:00,
2014-01-05 04:07:00,5.7,-1.7,30.26,WNW,301,5.0,12.0,71,0.00,OVC,OVC,0.00,0.0,WeatherDisplay:10.37,2014-01-05 10:07:00,
2014-01-05 04:12:00,5.6,-1.8,30.26,WNW,299,3.0,14.0,71,0.00,OVC,OVC,0.00,0.0,WeatherDisplay:10.37,2014-01-05 10:12:00,
2014-01-05 04:17:00,5.5,-2.2,30.25,WNW,301,5.0,12.0,70,0.00,OVC,OVC,0.00,0.0,WeatherDisplay:10.37,2014-01-05 10:17:00,
2014-01-05 04:22:00,5.5,-1.9,30.25,NW,308,8.0,16.0,71,0.00,OVC,OVC,0.00,0.0,WeatherDisplay:10.37,2014-01-05 10:22:00,
2014-01-05 04:27:00,5.3,-2.1,30.26,WNW,285,6.0,14.0,71,0.00,OVC,OVC,0.00,0.0,WeatherDisplay:10.37,2014-01-05 10:27:00,
2014-01-05 04:32:00,5.0,-2.4,30.25,WNW,298,6.0,16.0,71,0.00,OVC,OVC,0.00,0.0,WeatherDisplay:10.37,2014-01-05 10:32:00,
2014-01-05 04:37:00,5.0,-2.4,30.25,NW,309,3.0,8.0,71,0.00,OVC,OVC,0.00,0.0,WeatherDisplay:10.37,2014-01-05 10:37:00,
2014-01-05 04:42:00,4.8,-2.8,30.26,NW,309,5.1,15.0,70,0.00,OVC,,0.00,0.0,WeatherDisplay:10.37,2014-01-05 10:42:00,
2014-01-05 04:47:00,4.6,-3.0,30.26,West,279,8.8,18.4,70,0.00,OVC,,0.00,0.0,WeatherDisplay:10.37,2014-01-05 10:47:00,
2014-01-05 04:52:00,4.5,-3.1,30.26,WNW,300,9.9,15.0,70,0.00,OVC,,0.00,0.0,WeatherDisplay:10.37,2014-01-05 10:52:00,
2014-01-05 04:58:00,4.3,-3.3,30.26,WSW,249,9.8,18.4,70,0.00,OVC,,0.00,0.0,WeatherDisplay:10.37,2014-01-05 10:58:00,
2014-01-05 05:03:00,4.1,-3.5,30.26,WNW,290,7.1,11.5,70,0.00,OVC,,0.00,0.0,WeatherDisplay:10.37,2014-01-05 11:03:00,
2014-01-05 05:08:00,4.0,-3.6,30.26,WNW,294,8.3,12.7,70,0.00,OVC,,0.00,0.0,WeatherDisplay:10.37,2014-01-05 11:08:00,
2014-01-05 05:13:00,3.9,-3.7,30.26,West,270,4.5,14.0,70,0.00,OVC,,0.00,0.0,WeatherDisplay:10.37,2014-01-05 11:13:00,
2014-01-05 05:19:00,3.9,-3.7,30.26,WSW,254,7.8,18.4,70,0.00,OVC,,0.00,0.0,WeatherDisplay:10.37,2014-01-05 11:19:00,
2014-01-05 05:24:00,3.8,-4.1,30.26,WNW,286,7.7,16.1,69,0.00,OVC,,0.00,0.0,WeatherDisplay:10.37,2014-01-05 11:24:00,
2014-01-05 05:29:00,3.8,-3.8,30.27,West,277,10.1,16.1,70,0.00,OVC,,0.00,0.0,WeatherDisplay:10.37,2014-01-05 11:29:00,
2014-01-05 05:35:00,3.8,-3.8,30.27,WNW,284,9.0,16.0,70,0.00,OVC,,0.00,0.0,WeatherDisplay:10.37,2014-01-05 11:35:00,
2014-01-05 05:40:00,3.7,-4.2,30.27,NW,321,8.0,16.1,69,0.00,OVC,,0.00,0.0,WeatherDisplay:10.37,2014-01-05 11:40:00,
2014-01-05 05:45:00,3.5,-4.4,30.27,West,281,7.8,18.4,69,0.00,OVC,,0.00,0.0,WeatherDisplay:10.37,2014-01-05 11:45:00,
2014-01-05 05:50:00,3.5,-4.4,30.27,NNW,334,6.3,11.5,69,0.00,OVC,,0.00,0.0,WeatherDisplay:10.37,2014-01-05 11:50:00,
2014-01-05 05:56:00,3.4,-4.2,30.28,WNW,292,6.8,14.0,70,0.00,OVC,,0.00,0.0,WeatherDisplay:10.37,2014-01-05 11:56:00,
2014-01-05 06:01:00,3.4,-4.2,30.28,NNW,328,8.4,15.0,70,0.00,OVC,,0.00,0.0,WeatherDisplay:10.37,2014-01-05 12:01:00,
2014-01-05 06:06:00,3.2,-4.7,30.28,North,350,8.8,16.1,69,0.00,OVC,,0.00,0.0,WeatherDisplay:10.37,2014-01-05 12:06:00,
2014-01-05 06:11:00,3.0,-4.9,30.28,WSW,240,7.9,19.6,69,0.00,OVC,,0.00,0.0,WeatherDisplay:10.37,2014-01-05 12:11:00,
2014-01-05 06:17:00,2.9,-5.0,30.28,West,277,2.6,15.0,69,0.00,OVC,,0.00,0.0,WeatherDisplay:10.37,2014-01-05 12:17:00,
2014-01-05 06:22:00,2.9,-5.0,30.29,NW,305,5.0,18.0,69,0.00,OVC,OVC,0.00,0.0,WeatherDisplay:10.37,2014-01-05 12:22:00,
2014-01-05 06:27:00,3.0,-4.6,30.29,WNW,290,5.0,17.0,70,0.00,OVC,OVC,0.00,0.0,WeatherDisplay:10.37,2014-01-05 12:27:00,
2014-01-05 06:32:00,3.0,-4.9,30.30,WNW,289,8.0,16.0,69,0.00,OVC,OVC,0.00,0.0,WeatherDisplay:10.37,2014-01-05 12:32:00,
2014-01-05 06:37:00,3.0,-4.9,30.31,WNW,296,10.0,18.0,69,0.00,OVC,OVC,0.00,0.0,WeatherDisplay:10.37,2014-01-05 12:37:00,
2014-01-05 06:42:00,2.9,-5.0,30.31,WNW,293,9.0,16.0,69,0.00,OVC,OVC,0.00,0.0,WeatherDisplay:10.37,2014-01-05 12:42:00,
2014-01-05 06:47:00,2.9,-5.0,30.31,WNW,284,3.0,13.8,69,0.00,OVC,,0.00,0.0,WeatherDisplay:10.37,2014-01-05 12:47:00,
2014-01-05 06:52:00,2.8,-5.1,30.32,WNW,289,12.0,20.0,69,0.00,OVC,OVC,0.00,0.0,WeatherDisplay:10.37,2014-01-05 12:52:00,
2014-01-05 06:57:00,2.7,-5.5,30.32,WNW,288,6.0,20.0,68,0.00,OVC,OVC,0.00,0.0,WeatherDisplay:10.37,2014-01-05 12:57:00,
2014-01-05 07:02:00,2.7,-5.2,30.32,WNW,287,5.0,12.0,69,0.00,OVC,OVC,0.00,0.0,WeatherDisplay:10.37,2014-01-05 13:02:00,
2014-01-05 07:07:00,2.6,-5.6,30.32,WNW,292,8.0,16.0,68,0.00,OVC,OVC,0.00,0.0,WeatherDisplay:10.37,2014-01-05 13:07:00,
2014-01-05 07:12:00,2.6,-5.3,30.33,WNW,286,9.0,15.0,69,0.00,OVC,OVC,0.00,0.0,WeatherDisplay:10.37,2014-01-05 13:12:00,
2014-01-05 07:17:00,2.4,-5.7,30.33,WNW,288,5.0,17.0,68,0.00,OVC,OVC,0.00,0.0,WeatherDisplay:10.37,2014-01-05 13:17:00,
2014-01-05 07:22:00,2.4,-5.8,30.33,WSW,238,3.3,18.4,68,0.00,OVC,,0.00,0.0,WeatherDisplay:10.37,2014-01-05 13:22:00,
2014-01-05 07:27:00,2.4,-5.8,30.33,NW,312,6.0,13.0,68,0.00,OVC,OVC,0.00,0.0,WeatherDisplay:10.37,2014-01-05 13:27:00,
2014-01-05 07:32:00,2.3,-6.2,30.33,WNW,300,6.0,25.0,67,0.00,OVC,OVC,0.00,0.0,WeatherDisplay:10.37,2014-01-05 13:32:00,
2014-01-05 07:37:00,2.2,-6.9,30.33,West,273,6.3,12.7,65,0.00,OVC,,0.00,0.0,WeatherDisplay:10.37,2014-01-05 13:37:00,
2014-01-05 07:42:00,2.1,-7.3,30.33,WNW,288,9.4,17.0,64,0.00,OVC,,0.00,0.0,WeatherDisplay:10.37,2014-01-05 13:42:00,
2014-01-05 07:47:00,2.0,-7.1,30.33,NW,311,7.9,12.7,65,0.00,OVC,,0.00,0.0,WeatherDisplay:10.37,2014-01-05 13:47:00,
2014-01-05 07:52:00,2.0,-7.1,30.34,NW,306,5.8,16.1,65,0.00,OVC,,0.00,0.0,WeatherDisplay:10.37,2014-01-05 13:52:00,
2014-01-05 07:58:00,2.0,-6.8,30.35,NW,304,7.5,18.0,66,0.00,OVC,,0.00,7.0,WeatherDisplay:10.37,2014-01-05 13:58:00,
2014-01-05 08:03:00,1.8,-7.0,30.36,WNW,298,2.8,5.8,66,0.00,OVC,,0.00,11.0,WeatherDisplay:10.37,2014-01-05 14:03:00,
2014-01-05 08:08:00,1.7,-7.4,30.36,NW,306,7.6,10.4,65,0.00,OVC,,0.00,16.0,WeatherDisplay:10.37,2014-01-05 14:08:00,
2014-01-05 08:14:00,1.5,-7.6,30.37,West,265,5.2,19.6,65,0.00,OVC,,0.00,21.0,WeatherDisplay:10.37,2014-01-05 14:14:00,
2014-01-05 08:19:00,1.5,-7.6,30.37,NW,316,6.0,11.5,65,0.00,OVC,,0.00,26.0,WeatherDisplay:10.37,2014-01-05 14:19:00,
2014-01-05 08:24:00,1.5,-7.9,30.37,North,5,5.3,10.0,64,0.00,OVC,,0.00,32.0,WeatherDisplay:10.37,2014-01-05 14:24:00,
2014-01-05 08:29:00,1.5,-7.6,30.37,NW,305,5.7,9.0,65,0.00,OVC,,0.00,37.0,WeatherDisplay:10.37,2014-01-05 14:29:00,
2014-01-05 08:35:00,1.4,-7.6,30.37,WNW,300,2.3,11.5,65,0.00,OVC,,0.00,42.0,WeatherDisplay:10.37,2014-01-05 14:35:00,
2014-01-05 08:40:00,1.4,-7.6,30.37,West,273,6.6,12.7,65,0.00,OVC,,0.00,49.0,WeatherDisplay:10.37,2014-01-05 14:40:00,
2014-01-05 08:45:00,1.3,-7.7,30.37,NW,309,5.4,11.5,65,0.00,OVC,,0.00,54.0,WeatherDisplay:10.37,2014-01-05 14:45:00,
2014-01-05 08:50:00,1.2,-7.8,30.37,West,261,8.5,15.0,65,0.00,OVC,,0.00,60.0,WeatherDisplay:10.37,2014-01-05 14:50:00,
2014-01-05 08:56:00,1.2,-7.8,30.37,NW,306,8.1,16.1,65,0.00,OVC,,0.00,62.0,WeatherDisplay:10.37,2014-01-05 14:56:00,
2014-01-05 09:01:00,1.2,-8.2,30.37,WNW,290,3.0,8.1,64,0.00,OVC,,0.00,65.0,WeatherDisplay:10.37,2014-01-05 15:01:00,
2014-01-05 09:06:00,1.2,-8.2,30.38,WNW,296,3.8,13.8,64,0.00,OVC,,0.00,70.0,WeatherDisplay:10.37,2014-01-05 15:06:00,
2014-01-05 09:11:00,1.3,-8.1,30.38,NW,316,5.2,13.8,64,0.00,OVC,,0.00,79.0,WeatherDisplay:10.37,2014-01-05 15:11:00,
2014-01-05 09:17:00,1.3,-8.4,30.38,West,261,8.1,11.5,63,0.00,OVC,,0.00,86.0,WeatherDisplay:10.37,2014-01-05 15:17:00,
2014-01-05 09:22:00,1.5,-8.2,30.38,WNW,293,8.0,15.0,63,0.00,OVC,OVC,0.00,95.0,WeatherDisplay:10.37,2014-01-05 15:22:00,
2014-01-05 09:27:00,1.5,-8.2,30.38,WNW,299,5.0,15.0,63,0.00,OVC,OVC,0.00,100.0,WeatherDisplay:10.37,2014-01-05 15:27:00,
2014-01-05 09:32:00,1.6,-8.1,30.38,NW,304,5.0,16.0,63,0.00,OVC,OVC,0.00,104.0,WeatherDisplay:10.37,2014-01-05 15:32:00,
2014-01-05 09:37:00,1.7,-8.4,30.39,WNW,300,2.0,20.0,62,0.00,OVC,OVC,0.00,107.0,WeatherDisplay:10.37,2014-01-05 15:37:00,
2014-01-05 09:42:00,1.7,-8.3,30.38,NW,306,8.0,16.0,62,0.00,OVC,OVC,0.00,114.0,WeatherDisplay:10.37,2014-01-05 15:42:00,
2014-01-05 09:47:00,1.6,-8.8,30.38,NW,306,6.0,12.7,61,0.00,OVC,,0.00,125.0,WeatherDisplay:10.37,2014-01-05 15:47:00,
2014-01-05 09:52:00,1.8,-8.9,30.39,WNW,290,8.0,16.0,60,0.00,OVC,OVC,0.00,135.0,WeatherDisplay:10.37,2014-01-05 15:52:00,
2014-01-05 09:57:00,1.9,-8.8,30.39,WNW,286,6.0,12.0,60,0.00,OVC,OVC,0.00,146.0,WeatherDisplay:10.37,2014-01-05 15:57:00,
2014-01-05 10:02:00,1.9,-8.5,30.39,NNW,336,8.5,16.0,61,0.00,OVC,,0.00,156.0,WeatherDisplay:10.37,2014-01-05 16:02:00,
2014-01-05 10:07:00,1.9,-8.5,30.39,NW,313,3.8,11.5,61,0.00,OVC,,0.00,165.0,WeatherDisplay:10.37,2014-01-05 16:07:00,
2014-01-05 10:12:00,2.0,-8.7,30.39,WNW,300,10.9,27.0,60,0.00,OVC,,0.00,171.0,WeatherDisplay:10.37,2014-01-05 16:12:00,
2014-01-05 10:17:00,1.9,-9.2,30.39,NW,313,4.7,11.5,59,0.00,OVC,,0.00,167.0,WeatherDisplay:10.37,2014-01-05 16:17:00,
2014-01-05 10:23:00,2.1,-8.6,30.39,WNW,292,4.4,11.5,60,0.00,OVC,,0.00,167.0,WeatherDisplay:10.37,2014-01-05 16:23:00,
2014-01-05 10:28:00,2.2,-8.2,30.39,NW,306,8.9,12.0,61,0.00,OVC,,0.00,165.0,WeatherDisplay:10.37,2014-01-05 16:28:00,
2014-01-05 10:33:00,1.7,-9.7,30.39,West,273,10.7,18.4,58,0.00,OVC,,0.00,162.0,WeatherDisplay:10.37,2014-01-05 16:33:00,
2014-01-05 10:39:00,1.5,-9.5,30.39,West,281,10.8,14.0,59,0.00,OVC,,0.00,169.0,WeatherDisplay:10.37,2014-01-05 16:39:00,
2014-01-05 10:44:00,1.4,-9.6,30.39,West,275,10.2,19.6,59,0.00,OVC,,0.00,169.0,WeatherDisplay:10.37,2014-01-05 16:44:00,
2014-01-05 10:49:00,1.5,-9.5,30.39,WNW,301,5.3,9.2,59,0.00,OVC,,0.00,172.0,WeatherDisplay:10.37,2014-01-05 16:49:00,
2014-01-05 10:54:00,1.8,-9.2,30.39,West,281,6.3,9.2,59,0.00,OVC,,0.00,181.0,WeatherDisplay:10.37,2014-01-05 16:54:00,
2014-01-05 11:00:00,2.0,-8.7,30.39,North,360,8.2,10.0,60,0.00,OVC,,0.00,181.0,WeatherDisplay:10.37,2014-01-05 17:00:00,
2014-01-05 11:05:00,2.2,-8.9,30.39,West,277,8.8,13.8,59,0.00,OVC,,0.00,192.0,WeatherDisplay:10.37,2014-01-05 17:05:00,
2014-01-05 11:10:00,2.0,-9.1,30.39,NW,315,4.7,15.0,59,0.00,OVC,,0.00,192.0,WeatherDisplay:10.37,2014-01-05 17:10:00,
2014-01-05 11:15:00,2.2,-9.2,30.39,NNW,344,10.2,23.0,58,0.00,OVC,,0.00,195.0,WeatherDisplay:10.37,2014-01-05 17:15:00,
2014-01-05 11:21:00,2.4,-8.7,30.39,NW,317,3.0,9.2,59,0.00,OVC,,0.00,190.0,WeatherDisplay:10.37,2014-01-05 17:21:00,
2014-01-05 11:26:00,3.2,-7.6,30.39,WNW,299,8.2,13.0,60,0.00,OVC,,0.00,163.0,WeatherDisplay:10.37,2014-01-05 17:26:00,
2014-01-05 11:31:00,2.8,-8.7,30.38,WNW,300,8.0,17.3,58,0.00,OVC,,0.00,248.0,WeatherDisplay:10.37,2014-01-05 17:31:00,
2014-01-05 11:36:00,3.1,-8.7,30.38,NNW,335,4.6,12.7,57,0.00,OVC,,0.00,308.0,WeatherDisplay:10.37,2014-01-05 17:36:00,
2014-01-05 11:42:00,3.3,-9.3,30.38,NW,323,8.9,15.0,55,0.00,OVC,,0.00,288.0,WeatherDisplay:10.37,2014-01-05 17:42:00,
2014-01-05 11:47:00,3.7,-8.6,30.38,WNW,298,9.0,16.0,56,0.00,OVC,OVC,0.00,297.0,WeatherDisplay:10.37,2014-01-05 17:47:00,
2014-01-05 11:52:00,3.8,-8.8,30.38,WNW,293,9.0,20.0,55,0.00,OVC,OVC,0.00,334.0,WeatherDisplay:10.37,2014-01-05 17:52:00,
2014-01-05 11:57:00,4.0,-8.2,30.38,WNW,293,10.0,20.0,56,0.00,OVC,OVC,0.00,271.0,WeatherDisplay:10.37,2014-01-05 17:57:00,
2014-01-05 12:02:00,4.2,-7.7,30.38,WNW,293,7.0,25.0,57,0.00,OVC,OVC,0.00,258.0,WeatherDisplay:10.37,2014-01-05 18:02:00,
2014-01-05 12:07:00,3.8,-8.8,30.38,WNW,290,9.0,25.0,55,0.00,OVC,OVC,0.00,413.0,WeatherDisplay:10.37,2014-01-05 18:07:00,
2014-01-05 12:12:00,4.2,-8.8,30.38,WNW,298,4.7,12.0,54,0.00,OVC,,0.00,364.0,WeatherDisplay:10.37,2014-01-05 18:12:00,
2014-01-05 12:17:00,4.5,-8.1,30.38,NW,307,8.0,18.0,55,0.00,OVC,OVC,0.00,311.0,WeatherDisplay:10.37,2014-01-05 18:17:00,
2014-01-05 12:22:00,4.4,-8.2,30.37,WNW,294,7.0,20.0,55,0.00,OVC,OVC,0.00,316.0,WeatherDisplay:10.37,2014-01-05 18:22:00,
2014-01-05 12:27:00,4.5,-7.8,30.37,WNW,282,10.0,17.0,56,0.00,OVC,OVC,0.00,334.0,WeatherDisplay:10.37,2014-01-05 18:27:00,
2014-01-05 12:32:00,4.5,-8.1,30.38,WNW,293,12.0,18.0,55,0.00,OVC,OVC,0.00,332.0,WeatherDisplay:10.37,2014-01-05 18:32:00,
2014-01-05 12:37:00,4.5,-8.5,30.37,WNW,292,8.0,17.0,54,0.00,OVC,OVC,0.00,431.0,WeatherDisplay:10.37,2014-01-05 18:37:00,
2014-01-05 12:42:00,4.6,-8.8,30.38,WNW,290,8.0,18.0,53,0.00,OVC,OVC,0.00,397.0,WeatherDisplay:10.37,2014-01-05 18:42:00,
2014-01-05 12:47:00,4.5,-9.3,30.38,NW,324,8.8,13.8,52,0.00,OVC,,0.00,464.0,WeatherDisplay:10.37,2014-01-05 18:47:00,
2014-01-05 12:52:00,5.0,-8.0,30.38,WNW,299,6.0,16.0,54,0.00,OVC,OVC,0.00,308.0,WeatherDisplay:10.37,2014-01-05 18:52:00,
2014-01-05 12:57:00,5.3,-7.8,30.38,WNW,302,8.0,15.0,54,0.00,OVC,OVC,0.00,385.0,WeatherDisplay:10.37,2014-01-05 18:57:00,
2014-01-05 13:02:00,5.1,-8.7,30.38,WNW,297,10.0,17.0,52,0.00,BKN,BKN,0.00,434.0,WeatherDisplay:10.37,2014-01-05 19:02:00,
2014-01-05 13:07:00,5.1,-8.7,30.37,WNW,294,7.0,16.0,52,0.00,BKN,BKN,0.00,487.0,WeatherDisplay:10.37,2014-01-05 19:07:00,
2014-01-05 13:12:00,5.3,-8.5,30.37,WNW,292,12.0,23.0,52,0.00,BKN,BKN,0.00,483.0,WeatherDisplay:10.37,2014-01-05 19:12:00,
2014-01-05 13:17:00,5.5,-8.3,30.38,WNW,295,6.0,16.0,52,0.00,BKN,BKN,0.00,457.0,WeatherDisplay:10.37,2014-01-05 19:17:00,
2014-01-05 13:22:00,6.0,-7.2,30.38,WNW,299,6.0,15.0,54,0.00,BKN,BKN,0.00,390.0,WeatherDisplay:10.37,2014-01-05 19:22:00,
2014-01-05 13:27:00,6.3,-6.4,30.38,West,275,7.0,12.0,55,0.00,BKN,BKN,0.00,425.0,WeatherDisplay:10.37,2014-01-05 19:27:00,
2014-01-05 13:32:00,5.8,-6.9,30.38,West,272,8.0,17.0,55,0.00,BKN,BKN,0.00,387.0,WeatherDisplay:10.37,2014-01-05 19:32:00,
2014-01-05 13:37:00,5.2,-7.1,30.38,West,279,6.0,15.0,56,0.00,BKN,BKN,0.00,431.0,WeatherDisplay:10.37,2014-01-05 19:37:00,
2014-01-05 13:42:00,5.5,-6.5,30.38,West,273,6.0,13.0,57,0.00,BKN,BKN,0.00,408.0,WeatherDisplay:10.37,2014-01-05 19:42:00,
2014-01-05 13:47:00,5.3,-7.0,30.38,West,266,10.0,20.0,56,0.00,BKN,BKN,0.00,397.0,WeatherDisplay:10.37,2014-01-05 19:47:00,
2014-01-05 13:52:00,5.2,-6.8,30.38,West,269,12.0,20.0,57,0.00,BKN,BKN,0.00,420.0,WeatherDisplay:10.37,2014-01-05 19:52:00,
2014-01-05 13:57:00,5.4,-6.2,30.38,West,274,8.0,20.0,58,0.00,BKN,BKN,0.00,415.0,WeatherDisplay:10.37,2014-01-05 19:57:00,
2014-01-05 14:02:00,5.7,-5.6,30.38,West,267,10.5,16.1,59,0.00,SCT,,0.00,404.0,WeatherDisplay:10.37,2014-01-05 20:02:00,
2014-01-05 14:07:00,5.8,-5.5,30.38,West,277,10.2,14.0,59,0.00,SCT,,0.00,399.0,WeatherDisplay:10.37,2014-01-05 20:07:00,
2014-01-05 14:12:00,5.7,-5.6,30.39,NW,311,11.4,16.0,59,0.00,SCT,,0.00,367.0,WeatherDisplay:10.37,2014-01-05 20:12:00,
2014-01-05 14:18:00,5.7,-5.9,30.38,West,266,8.2,11.5,58,0.00,SCT,,0.00,158.0,WeatherDisplay:10.37,2014-01-05 20:18:00,
2014-01-05 14:23:00,5.8,-5.5,30.39,WSW,254,9.0,13.0,59,0.00,SCT,,0.00,121.0,WeatherDisplay:10.37,2014-01-05 20:23:00,
2014-01-05 14:28:00,5.8,-5.5,30.39,NNW,329,9.8,18.0,59,0.00,SCT,,0.00,105.0,WeatherDisplay:10.37,2014-01-05 20:28:00,
2014-01-05 14:33:00,6.1,-4.8,30.39,West,280,10.0,17.0,60,0.00,SCT,,0.00,100.0,WeatherDisplay:10.37,2014-01-05 20:33:00,
2014-01-05 14:39:00,5.8,-4.8,30.40,NNW,338,11.1,20.7,61,0.00,SCT,,0.00,95.0,WeatherDisplay:10.37,2014-01-05 20:39:00,
2014-01-05 14:44:00,5.6,-4.6,30.40,WNW,286,12.4,23.0,62,0.00,SCT,,0.00,120.0,WeatherDisplay:10.37,2014-01-05 20:44:00,
2014-01-05 14:49:00,5.7,-4.2,30.40,NW,308,6.8,16.1,63,0.00,SCT,,0.00,109.0,WeatherDisplay:10.37,2014-01-05 20:49:00,
2014-01-05 14:55:00,5.6,-4.6,30.40,West,270,12.8,19.6,62,0.00,SCT,,0.00,93.0,WeatherDisplay:10.37,2014-01-05 20:55:00,
2014-01-05 15:00:00,5.7,-5.2,30.41,North,355,15.6,19.6,60,0.00,SCT,,0.00,84.0,WeatherDisplay:10.37,2014-01-05 21:00:00,
2014-01-05 15:05:00,5.6,-5.0,30.41,SW,233,11.5,22.0,61,0.00,SCT,,0.00,93.0,WeatherDisplay:10.37,2014-01-05 21:05:00,
2014-01-05 15:10:00,5.4,-5.5,30.41,West,279,12.6,19.6,60,0.00,SCT,,0.00,91.0,WeatherDisplay:10.37,2014-01-05 21:10:00,
2014-01-05 15:16:00,5.5,-5.1,30.42,WNW,282,7.9,12.7,61,0.00,SCT,,0.00,84.0,WeatherDisplay:10.37,2014-01-05 21:16:00,
2014-01-05 15:21:00,5.6,-5.0,30.42,WNW,287,7.5,17.3,61,0.00,SCT,,0.00,104.0,WeatherDisplay:10.37,2014-01-05 21:21:00,
2014-01-05 15:26:00,5.6,-4.6,30.42,West,265,9.9,16.1,62,0.00,SCT,,0.00,105.0,WeatherDisplay:10.37,2014-01-05 21:26:00,
2014-01-05 15:31:00,5.3,-3.9,30.41,West,273,4.9,11.5,65,0.00,SCT,,0.00,74.0,WeatherDisplay:10.37,2014-01-05 21:31:00,
2014-01-05 15:37:00,5.0,-4.2,30.41,WNW,300,12.3,15.0,65,0.00,SCT,,0.00,47.0,WeatherDisplay:10.37,2014-01-05 21:37:00,
2014-01-05 15:42:00,5.1,-4.1,30.42,West,272,8.0,20.0,65,0.00,SCT,SCT,0.00,69.0,WeatherDisplay:10.37,2014-01-05 21:42:00,
2014-01-05 15:47:00,5.4,-4.2,30.42,West,262,8.2,12.7,64,0.00,SCT,,0.00,49.0,WeatherDisplay:10.37,2014-01-05 21:47:00,
2014-01-05 15:52:00,5.4,-3.8,30.42,West,279,8.0,16.0,65,0.00,SCT,SCT,0.00,69.0,WeatherDisplay:10.37,2014-01-05 21:52:00,
2014-01-05 15:57:00,5.5,-3.7,30.42,WNW,282,7.0,20.0,65,0.00,SCT,SCT,0.00,47.0,WeatherDisplay:10.37,2014-01-05 21:57:00,
2014-01-05 16:02:00,5.4,-3.5,30.43,WNW,284,14.3,18.4,66,0.00,SCT,,0.00,49.0,WeatherDisplay:10.37,2014-01-05 22:02:00,
2014-01-05 16:07:00,5.3,-5.2,30.43,WSW,250,11.2,29.0,61,0.00,SCT,,0.00,35.0,WeatherDisplay:10.37,2014-01-05 22:07:00,
2014-01-05 16:12:00,5.0,-6.2,30.43,WNW,292,15.6,26.5,59,0.00,SCT,,0.00,42.0,WeatherDisplay:10.37,2014-01-05 22:12:00,
2014-01-05 16:18:00,4.7,-5.5,30.44,West,273,12.4,25.3,62,0.00,SCT,,0.00,62.0,WeatherDisplay:10.37,2014-01-05 22:18:00,
2014-01-05 16:23:00,4.3,-6.2,30.44,WNW,292,9.8,16.1,61,0.00,SCT,,0.00,26.0,WeatherDisplay:10.37,2014-01-05 22:23:00,
2014-01-05 16:28:00,3.9,-6.6,30.44,West,267,10.7,16.1,61,0.00,SCT,,0.00,21.0,WeatherDisplay:10.37,2014-01-05 22:28:00,
2014-01-05 16:33:00,3.5,-7.0,30.44,West,270,10.4,17.3,61,0.00,SCT,,0.00,14.0,WeatherDisplay:10.37,2014-01-05 22:33:00,
2014-01-05 16:39:00,3.1,-7.3,30.45,WNW,297,12.1,19.6,61,0.00,SCT,,0.00,12.0,WeatherDisplay:10.37,2014-01-05 22:39:00,
2014-01-05 16:44:00,2.7,-7.7,30.46,West,266,9.7,19.6,61,0.00,SCT,,0.00,9.0,WeatherDisplay:10.37,2014-01-05 22:44:00,
2014-01-05 16:49:00,2.4,-7.7,30.45,West,268,5.0,9.2,62,0.00,SCT,,0.00,7.0,WeatherDisplay:10.37,2014-01-05 22:49:00,
2014-01-05 16:54:00,2.2,-8.5,30.46,West,271,15.9,24.2,60,0.00,SCT,,0.00,5.0,WeatherDisplay:10.37,2014-01-05 22:54:00,
2014-01-05 17:00:00,1.9,-9.5,30.47,West,275,9.8,13.0,58,0.00,SCT,,0.00,0.0,WeatherDisplay:10.37,2014-01-05 23:00:00,
2014-01-05 17:05:00,1.6,-10.1,30.47,WNW,282,10.5,20.7,57,0.00,BKN,,0.00,0.0,WeatherDisplay:10.37,2014-01-05 23:05:00,
2014-01-05 17:10:00,1.3,-10.8,30.47,WNW,294,10.4,17.3,56,0.00,BKN,,0.00,0.0,WeatherDisplay:10.37,2014-01-05 23:10:00,
2014-01-05 17:15:00,1.0,-11.4,30.47,WSW,256,9.4,17.0,55,0.00,BKN,,0.00,0.0,WeatherDisplay:10.37,2014-01-05 23:15:00,
2014-01-05 17:21:00,0.9,-11.9,30.47,West,279,14.1,25.3,54,0.00,BKN,,0.00,0.0,WeatherDisplay:10.37,2014-01-05 23:21:00,
2014-01-05 17:26:00,0.6,-12.2,30.47,West,270,9.4,17.3,54,0.00,BKN,,0.00,0.0,WeatherDisplay:10.37,2014-01-05 23:26:00,
2014-01-05 17:31:00,0.5,-12.3,30.48,WSW,245,11.6,17.3,54,0.00,BKN,,0.00,0.0,WeatherDisplay:10.37,2014-01-05 23:31:00,
2014-01-05 17:36:00,0.4,-12.7,30.48,West,277,8.8,17.0,53,0.00,BKN,,0.00,0.0,WeatherDisplay:10.37,2014-01-05 23:36:00,
2014-01-05 17:42:00,0.3,-12.8,30.48,West,271,12.5,24.0,53,0.00,BKN,,0.00,0.0,WeatherDisplay:10.37,2014-01-05 23:42:00,
2014-01-05 17:47:00,0.2,-12.9,30.48,WNW,282,9.0,26.0,53,0.00,BKN,BKN,0.00,0.0,WeatherDisplay:10.37,2014-01-05 23:47:00,
2014-01-05 17:52:00,0.0,-12.7,30.48,WNW,288,7.7,19.6,54,0.00,BKN,,0.00,0.0,WeatherDisplay:10.37,2014-01-05 23:52:00,
2014-01-05 17:57:00,-0.2,-12.6,30.48,NNW,333,10.9,15.0,55,0.00,BKN,,0.00,0.0,WeatherDisplay:10.37,2014-01-05 23:57:00,
2014-01-05 18:02:00,-0.2,-12.6,30.49,NW,320,13.2,24.2,55,0.00,FEW,,0.00,0.0,WeatherDisplay:10.37,2014-01-06 00:02:00,
2014-01-05 18:07:00,-0.4,-12.7,30.49,WNW,282,11.2,19.6,55,0.00,FEW,,0.00,0.0,WeatherDisplay:10.37,2014-01-06 00:07:00,
2014-01-05 18:12:00,-0.5,-12.5,30.49,WSW,254,9.8,18.4,56,0.00,FEW,,0.00,0.0,WeatherDisplay:10.37,2014-01-06 00:12:00,
2014-01-05 18:18:00,-0.7,-12.3,30.49,West,264,8.4,19.6,57,0.00,FEW,,0.00,0.0,WeatherDisplay:10.37,2014-01-06 00:18:00,
2014-01-05 18:23:00,-0.9,-12.5,30.49,WNW,282,11.7,17.3,57,0.00,FEW,,0.00,0.0,WeatherDisplay:10.37,2014-01-06 00:23:00,
2014-01-05 18:28:00,-1.0,-12.9,30.49,NW,317,8.9,13.8,56,0.00,FEW,,0.00,0.0,WeatherDisplay:10.37,2014-01-06 00:28:00,
2014-01-05 18:33:00,-1.2,-12.8,30.49,West,273,6.7,15.0,57,0.00,FEW,,0.00,0.0,WeatherDisplay:10.37,2014-01-06 00:33:00,
2014-01-05 18:39:00,-1.5,-12.7,30.49,SW,228,11.0,19.6,58,0.00,FEW,,0.00,0.0,WeatherDisplay:10.37,2014-01-06 00:39:00,
2014-01-05 18:44:00,-1.6,-12.5,30.49,NNW,342,9.0,15.0,59,0.00,FEW,,0.00,0.0,WeatherDisplay:10.37,2014-01-06 00:44:00,
2014-01-05 18:49:00,-1.8,-12.3,30.49,NW,313,11.7,15.0,60,0.00,FEW,,0.00,0.0,WeatherDisplay:10.37,2014-01-06 00:49:00,
2014-01-05 18:54:00,-2.0,-12.5,30.49,West,281,6.4,12.7,60,0.00,FEW,,0.00,0.0,WeatherDisplay:10.37,2014-01-06 00:54:00,
2014-01-05 19:00:00,-2.1,-12.6,30.49,NNW,348,3.8,12.7,60,0.00,FEW,,0.00,0.0,WeatherDisplay:10.37,2014-01-06 01:00:00,
2014-01-05 19:05:00,-2.3,-12.8,30.50,West,261,10.7,16.1,60,0.00,FEW,,0.00,0.0,WeatherDisplay:10.37,2014-01-06 01:05:00,
2014-01-05 19:10:00,-2.4,-13.6,30.50,West,267,11.3,18.0,58,0.00,FEW,,0.00,0.0,WeatherDisplay:10.37,2014-01-06 01:10:00,
2014-01-05 19:16:00,-2.6,-14.1,30.50,West,265,9.6,23.0,57,0.00,FEW,,0.00,0.0,WeatherDisplay:10.37,2014-01-06 01:16:00,
2014-01-05 19:21:00,-2.7,-14.5,30.50,West,281,8.7,15.0,56,0.00,FEW,,0.00,0.0,WeatherDisplay:10.37,2014-01-06 01:21:00,
2014-01-05 19:26:00,-2.9,-15.1,30.50,West,278,12.2,19.6,55,0.00,FEW,,0.00,0.0,WeatherDisplay:10.37,2014-01-06 01:26:00,
2014-01-05 19:31:00,-3.2,-15.7,30.50,WSW,246,9.8,16.1,54,0.00,FEW,,0.00,0.0,WeatherDisplay:10.37,2014-01-06 01:31:00,
2014-01-05 19:37:00,-3.4,-15.9,30.50,SW,223,9.3,16.1,54,0.00,FEW,,0.00,0.0,WeatherDisplay:10.37,2014-01-06 01:37:00,
2014-01-05 19:42:00,-3.5,-16.0,30.50,West,272,13.0,23.0,54,0.00,FEW,FEW,0.00,0.0,WeatherDisplay:10.37,2014-01-06 01:42:00,
2014-01-05 19:47:00,-3.7,-15.8,30.50,West,268,10.0,21.0,55,0.00,FEW,FEW,0.00,0.0,WeatherDisplay:10.37,2014-01-06 01:47:00,
2014-01-05 19:52:00,-3.8,-15.9,30.50,West,275,10.0,20.0,55,0.00,FEW,FEW,0.00,0.0,WeatherDisplay:10.37,2014-01-06 01:52:00,
2014-01-05 19:57:00,-4.0,-16.1,30.50,West,268,10.0,18.0,55,0.00,FEW,FEW,0.00,0.0,WeatherDisplay:10.37,2014-01-06 01:57:00,
2014-01-05 20:02:00,-4.2,-16.7,30.50,West,265,14.0,24.0,54,0.00,CLR,CLR,0.00,0.0,WeatherDisplay:10.37,2014-01-06 02:02:00,
2014-01-05 20:07:00,-4.3,-17.2,30.50,West,268,13.0,20.0,53,0.00,CLR,CLR,0.00,0.0,WeatherDisplay:10.37,2014-01-06 02:07:00,
2014-01-05 20:12:00,-4.5,-17.3,30.50,West,268,13.0,28.0,53,0.00,CLR,CLR,0.00,0.0,WeatherDisplay:10.37,2014-01-06 02:12:00,
2014-01-05 20:17:00,-4.6,-17.4,30.50,West,275,13.0,23.0,53,0.00,CLR,CLR,0.00,0.0,WeatherDisplay:10.37,2014-01-06 02:17:00,
2014-01-05 20:22:00,-4.7,-17.5,30.51,WNW,282,16.0,20.0,53,0.00,CLR,CLR,0.00,0.0,WeatherDisplay:10.37,2014-01-06 02:22:00,
2014-01-05 20:27:00,-4.9,-17.7,30.51,West,279,9.0,24.0,53,0.00,CLR,CLR,0.00,0.0,WeatherDisplay:10.37,2014-01-06 02:27:00,
2014-01-05 20:32:00,-5.1,-17.5,30.51,West,270,16.0,24.0,54,0.00,CLR,CLR,0.00,0.0,WeatherDisplay:10.37,2014-01-06 02:32:00,
2014-01-05 20:37:00,-5.2,-17.6,30.51,West,280,12.0,27.0,54,0.00,CLR,CLR,0.00,0.0,WeatherDisplay:10.37,2014-01-06 02:37:00,
2014-01-05 20:42:00,-5.4,-17.4,30.50,West,275,5.7,18.4,55,0.00,CLR,,0.00,0.0,WeatherDisplay:10.37,2014-01-06 02:42:00,
2014-01-05 20:47:00,-5.6,-17.3,30.51,West,271,9.0,20.0,56,0.00,CLR,CLR,0.00,0.0,WeatherDisplay:10.37,2014-01-06 02:47:00,
2014-01-05 20:52:00,-5.8,-17.1,30.51,West,267,6.0,16.0,57,0.00,CLR,CLR,0.00,0.0,WeatherDisplay:10.37,2014-01-06 02:52:00,
2014-01-05 20:57:00,-5.9,-16.5,30.50,West,270,7.0,21.0,59,0.00,CLR,CLR,0.00,0.0,WeatherDisplay:10.37,2014-01-06 02:57:00,
2014-01-05 21:02:00,-6.1,-16.4,30.51,West,269,9.0,15.0,60,0.00,CLR,CLR,0.00,0.0,WeatherDisplay:10.37,2014-01-06 03:02:00,
2014-01-05 21:07:00,-6.2,-16.2,30.51,West,273,12.0,21.0,61,0.00,CLR,CLR,0.00,0.0,WeatherDisplay:10.37,2014-01-06 03:07:00,
2014-01-05 21:12:00,-6.3,-15.9,30.51,West,271,7.0,20.0,62,0.00,CLR,CLR,0.00,0.0,WeatherDisplay:10.37,2014-01-06 03:12:00,
2014-01-05 21:17:00,-6.4,-15.4,30.51,West,270,6.0,15.0,64,0.00,CLR,CLR,0.00,0.0,WeatherDisplay:10.37,2014-01-06 03:17:00,
2014-01-05 21:22:00,-6.5,-14.3,30.51,West,260,7.0,26.0,68,0.00,CLR,CLR,0.00,0.0,WeatherDisplay:10.37,2014-01-06 03:22:00,
2014-01-05 21:27:00,-6.5,-13.7,30.51,West,264,5.0,23.0,70,0.00,CLR,CLR,0.00,0.0,WeatherDisplay:10.37,2014-01-06 03:27:00,
2014-01-05 21:32:00,-6.5,-13.5,30.51,WSW,254,3.8,8.1,71,0.00,CLR,,0.00,0.0,WeatherDisplay:10.37,2014-01-06 03:32:00,
2014-01-05 21:37:00,-6.6,-13.6,30.51,West,262,12.0,22.0,71,0.00,CLR,CLR,0.00,0.0,WeatherDisplay:10.37,2014-01-06 03:37:00,
2014-01-05 21:42:00,-6.8,-13.7,30.52,West,267,10.0,17.0,71,0.00,CLR,CLR,0.00,0.0,WeatherDisplay:10.37,2014-01-06 03:42:00,
2014-01-05 21:47:00,-7.1,-14.6,30.52,West,271,8.0,28.0,69,0.00,CLR,CLR,0.00,0.0,WeatherDisplay:10.37,2014-01-06 03:47:00,
2014-01-05 21:52:00,-7.3,-15.7,30.52,West,273,13.0,26.0,66,0.00,CLR,CLR,0.00,0.0,WeatherDisplay:10.37,2014-01-06 03:52:00,
2014-01-05 21:57:00,-7.6,-16.9,30.52,West,270,9.0,20.0,63,0.00,CLR,CLR,0.00,0.0,WeatherDisplay:10.37,2014-01-06 03:57:00,
2014-01-05 22:02:00,-8.0,-18.2,30.52,West,265,14.0,20.0,60,0.00,-SN,-SN,0.00,0.0,WeatherDisplay:10.37,2014-01-06 04:02:00,
2014-01-05 22:07:00,-8.3,-18.8,30.52,West,268,7.0,20.0,59,0.00,-SN,-SN,0.00,0.0,WeatherDisplay:10.37,2014-01-06 04:07:00,
2014-01-05 22:12:00,-8.5,-19.0,30.52,West,263,8.0,26.0,59,0.00,-SN,-SN,0.00,0.0,WeatherDisplay:10.37,2014-01-06 04:12:00,
2014-01-05 22:17:00,-8.8,-19.3,30.52,West,266,6.0,23.0,59,0.00,-SN,-SN,0.00,0.0,WeatherDisplay:10.37,2014-01-06 04:17:00,
2014-01-05 22:22:00,-9.1,-19.6,30.52,West,267,9.0,18.0,59,0.00,-SN,-SN,0.00,0.0,WeatherDisplay:10.37,2014-01-06 04:22:00,
2014-01-05 22:27:00,-9.3,-19.8,30.52,West,263,9.0,22.0,59,0.00,-SN,-SN,0.00,0.0,WeatherDisplay:10.37,2014-01-06 04:27:00,
2014-01-05 22:32:00,-9.5,-20.0,30.52,West,274,9.0,20.0,59,0.00,-SN,-SN,0.00,0.0,WeatherDisplay:10.37,2014-01-06 04:32:00,
2014-01-05 22:37:00,-9.7,-20.1,30.52,West,277,6.0,16.0,59,0.00,-SN,-SN,0.00,0.0,WeatherDisplay:10.37,2014-01-06 04:37:00,
2014-01-05 22:42:00,-9.9,-20.3,30.52,West,264,6.0,23.0,59,0.00,-SN,-SN,0.00,0.0,WeatherDisplay:10.37,2014-01-06 04:42:00,
2014-01-05 22:47:00,-10.0,-20.4,30.52,West,263,8.0,20.0,59,0.00,-SN,-SN,0.00,0.0,WeatherDisplay:10.37,2014-01-06 04:47:00,
2014-01-05 22:57:00,-10.2,-20.6,30.52,West,277,7.2,16.0,59,0.00,-SN,,0.00,0.0,WeatherDisplay:10.37,2014-01-06 04:57:00,
2014-01-05 23:17:00,-10.3,-20.7,30.52,NNW,327,10.0,30.0,59,0.00,-SN,-SN,0.00,0.0,WeatherDisplay:10.37,2014-01-06 05:17:00,
2014-01-05 23:22:00,-10.3,-20.7,30.52,West,279,10.0,30.0,59,0.00,-SN,-SN,0.00,0.0,WeatherDisplay:10.37,2014-01-06 05:22:00,
2014-01-05 23:27:00,-10.3,-20.7,30.52,West,270,10.0,30.0,59,0.00,-SN,-SN,0.00,0.0,WeatherDisplay:10.37,2014-01-06 05:27:00,
2014-01-05 23:37:00,-10.7,-20.5,30.52,WNW,286,13.6,19.6,61,0.00,-SN,,0.00,0.0,WeatherDisplay:10.37,2014-01-06 05:37:00,
2014-01-05 23:39:00,-10.8,-20.5,30.52,West,272,7.4,18.4,61,0.00,SCT,,0.00,0.0,WeatherDisplay:10.37,2014-01-06 05:39:00,
2014-01-05 23:44:00,-10.8,-20.5,30.51,NNW,331,9.6,12.0,61,0.00,SCT,,0.00,0.0,WeatherDisplay:10.37,2014-01-06 05:44:00,
2014-01-05 23:50:00,-10.8,-20.5,30.52,West,265,9.5,15.0,61,0.00,SCT,,0.00,0.0,WeatherDisplay:10.37,2014-01-06 05:50:00,
2014-01-05 23:55:00,-10.9,-20.3,30.51,WNW,290,5.7,15.0,62,0.00,SCT,,0.00,0.0,WeatherDisplay:10.37,2014-01-06 05:55:00,